{"data":{"norad_id":58301,"epoch":"2026-05-25T05:29:35.371968Z","epoch_age_seconds":48599,"freshness":"FRESH","line1":"1 58301U 23174AX  26145.22888162  .00012981  00000+0  35665-3 0  9997","line2":"2 58301  97.5188 230.2560 0073762 202.7530 157.0438 15.34590422141378","mean_motion":15.34590422,"eccentricity":0.0073762,"inclination_deg":97.5188,"raan_deg":230.256,"arg_perigee_deg":202.753,"mean_anomaly_deg":157.0438,"bstar":0.00035665,"rev_number":14137,"period_min":93.836112838713,"perigee_km":411.68209294734,"apogee_km":512.5925558909,"semimajor_km":6840.2743244191,"source":"CELESTRAK","updated_at":"2026-05-25T13:38:00.647696Z"}}